This is the latest recevied weather packets stored in our database for station/object AD8BV. If no packets are shown the sender has not sent any weather packets the latest 10 day(s).
| Time | Temp. | Humidity | Pressure | Rain* | Wind** | Luminosity | Snow |
|---|---|---|---|---|---|---|---|
| 1777908020 | 20.56° C | 51% | 1005.1 hPa | 0 mm | - | 690 W/m² | - |
| 1777907716 | 20.56° C | 52% | 1005.4 hPa | 0 mm | - | 659 W/m² | - |
| 1777907410 | 20° C | 51% | 1005.3 hPa | 0 mm | - | 663 W/m² | - |
| 1777907108 | 20° C | 53% | 1005.4 hPa | 0 mm | - | 678 W/m² | - |
| 1777906806 | 19.44° C | 57% | 1005.5 hPa | 0 mm | - | 694 W/m² | - |
| 1777906503 | 19.44° C | 57% | 1005.6 hPa | 0 mm | - | 705 W/m² | - |
| 1777906198 | 19.44° C | 56% | 1005.5 hPa | 0 mm | - | 730 W/m² | - |
| 1777905895 | 18.89° C | 60% | 1005.4 hPa | 0 mm | - | 726 W/m² | - |
| 1777905592 | 18.89° C | 58% | 1005.6 hPa | 0 mm | - | 476 W/m² | - |
| 1777905289 | 18.89° C | 57% | 1005.5 hPa | 0 mm | - | 437 W/m² | - |
| 1777904986 | 18.33° C | 60% | 1005.7 hPa | 0 mm | - | 498 W/m² | - |
| 1777904683 | 17.78° C | 59% | 1005.6 hPa | 0 mm | - | 406 W/m² | - |
| 1777904380 | 17.22° C | 60% | 1005.6 hPa | 0 mm | - | 226 W/m² | - |
| 1777904077 | 17.22° C | 63% | 1005.5 hPa | 0 mm | - | 383 W/m² | - |
| 1777903773 | 16.67° C | 65% | 1005.9 hPa | 0 mm | - | 279 W/m² | - |
| 1777903470 | 16.67° C | 63% | 1005.9 hPa | 0 mm | - | 249 W/m² | - |
| 1777903167 | 16.11° C | 64% | 1006 hPa | 0 mm | - | 97 W/m² | - |
| 1777902863 | 16.11° C | 65% | 1006 hPa | 0 mm | - | 206 W/m² | - |
| 1777902561 | 16.11° C | 65% | 1006 hPa | 0 mm | - | 180 W/m² | - |
| 1777902257 | 15.56° C | 67% | 1006.1 hPa | 0 mm | - | 252 W/m² | - |
| 1777901955 | 15.56° C | 68% | 1006 hPa | 0 mm | - | 175 W/m² | - |
| 1777901653 | 15° C | 67% | 1006 hPa | 0 mm | - | 281 W/m² | - |
| 1777901349 | 15° C | 69% | 1006.2 hPa | 0 mm | - | 205 W/m² | - |
| 1777901047 | 15° C | 69% | 1006.2 hPa | 0 mm | - | 148 W/m² | - |
| 1777900745 | 14.44° C | 71% | 1006.5 hPa | 0 mm | - | 157 W/m² | - |
* Rain latest hour (hover to see other rain measurements)
** Current wind speed in m/s (hover to see current wind gust speed)